Simultaneous Nadir Overpasses (SNOs) Predictions

Prediction of SNOs between NOAA-20 and NOAA-19 Satellite Orbit:

Table of predicted SNOs for the next 14.0 days since TLE Epoch: 7/29/2023
Index Date (NOAA-20) Time (NOAA-20) Lat,Lon (NOAA-20) SZA (NOAA-20 ) Date (NOAA-19) Time (NOAA-19) Lat,Lon (NOAA-19) SZA (NOAA-19 ) Distance(km) Time Diff (sec)
1 08/01/2023 21:10:31 74.81,-150.37 57.35 08/01/2023 21:09:18 74.83,-151.02 57.45 19.36 73
2 08/01/2023 22:01:18 -74.94, 16.58 122.50 08/01/2023 22:00:15 -74.94, 16.55 122.47 1.13 63
3 08/01/2023 22:52:04 74.96,-176.16 57.54 08/01/2023 22:51:14 74.97,-176.10 57.57 2.41 50
4 08/01/2023 23:42:49 -74.99, -8.94 122.42 08/01/2023 23:42:13 -74.99, -8.81 122.42 3.74 36
5 08/02/2023 00:33:34 74.96, 158.45 57.56 08/02/2023 00:33:13 74.97, 158.39 57.58 1.90 21
6 08/02/2023 01:24:19 -74.99, -34.33 122.39 08/02/2023 01:24:12 -74.98, -34.31 122.40 1.31 7
7 08/02/2023 02:15:05 75.01, 132.93 57.64 08/02/2023 02:15:11 75.01, 133.03 57.63 3.12 6
8 08/02/2023 03:05:49 -75.00, -59.72 122.37 08/02/2023 03:06:11 -74.98, -59.81 122.39 3.30 22
9 08/02/2023 03:56:35 75.02, 107.54 57.67 08/02/2023 03:57:10 75.01, 107.53 57.65 0.90 35
10 08/02/2023 04:47:19 -75.00, -85.10 122.35 08/02/2023 04:48:09 -75.03, -85.17 122.34 3.05 50
11 08/02/2023 05:38:05 75.02, 82.15 57.69 08/02/2023 05:39:08 75.06, 82.17 57.70 3.53 63
12 08/02/2023 06:28:52 -75.15,-110.91 122.16 08/02/2023 06:30:05 -75.16,-110.24 122.22 19.06 73



Historial Predications of SNOs between NOAA-20 and NOAA-19
